Terug naar catalogus

STARLINK-30849

ActiefCommunicatieVLEO
NORAD 58245·PAYLOAD·🇺🇸 United States

Gelanceerd Nov 8, 2023 vanaf Cape Canaveral Space Force Station

Loading…

Volgende Passages (komende 24 uur)

TLE

VersSource: CelesTrak SupGP

Epoch: Sep 15, 2026, 02:24 UTC

1 58245C 23171R   26258.10048611  .00032368  00000+0  11724-2 0  2588
2 58245  43.0023 295.5520 0001866 261.8286  52.4171 15.27560410    12

Volg STARLINK-30849 in realtime met AllMySat

Download on the App Store